This is the latest recevied weather packets stored in our database for station/object WX2NJ-13. If no packets are shown the sender has not sent any weather packets the latest 10 day(s).
| Time | Temp. | Humidity | Pressure | Rain* | Wind** | Luminosity | Snow |
|---|---|---|---|---|---|---|---|
| 1777657731 | 19.44° C | 41% | 1013 hPa | 0 mm | 2.24 m/s, 139° | - | - |
| 1777657433 | 18.89° C | 43% | 1013 hPa | 0 mm | 0.89 m/s, 155° | - | - |
| 1777657134 | 18.89° C | 42% | 1013.1 hPa | 0 mm | 0.45 m/s, 269° | - | - |
| 1777656833 | 18.89° C | 45% | 1013.1 hPa | 0 mm | 0 m/s | - | - |
| 1777656534 | 18.33° C | 43% | 1013.1 hPa | 0 mm | 0.45 m/s, 210° | - | - |
| 1777656236 | 18.33° C | 40% | 1013.1 hPa | 0 mm | 0.45 m/s, 246° | - | - |
| 1777655934 | 18.33° C | 44% | 1013.1 hPa | 0 mm | 0.89 m/s, 177° | - | - |
| 1777655636 | 18.33° C | 45% | 1013.1 hPa | 0 mm | 0.89 m/s, 302° | - | - |
| 1777655337 | 18.33° C | 44% | 1013.2 hPa | 0 mm | 1.34 m/s, 274° | - | - |
| 1777655036 | 17.78° C | 45% | 1013.1 hPa | 0 mm | 0 m/s | - | - |
| 1777654737 | 17.78° C | 45% | 1013.3 hPa | 0 mm | 1.79 m/s, 122° | - | - |
| 1777654439 | 17.78° C | 45% | 1013.4 hPa | 0 mm | 0 m/s | - | - |
| 1777654137 | 17.78° C | 46% | 1013.5 hPa | 0 mm | 0.89 m/s, 76° | - | - |
| 1777653839 | 17.78° C | 46% | 1013.6 hPa | 0 mm | 1.79 m/s, 180° | - | - |
| 1777653540 | 17.78° C | 44% | 1013.7 hPa | 0 mm | 0.89 m/s, 94° | - | - |
| 1777653239 | 17.22° C | 45% | 1013.8 hPa | 0 mm | 0.89 m/s, 177° | - | - |
| 1777652941 | 17.22° C | 47% | 1013.7 hPa | 0 mm | 0.89 m/s, 329° | - | - |
| 1777652642 | 17.22° C | 47% | 1013.8 hPa | 0 mm | 0.45 m/s, 136° | - | - |
| 1777652341 | 17.22° C | 45% | 1013.8 hPa | 0 mm | 0 m/s | - | - |
| 1777652042 | 16.67° C | 47% | 1013.9 hPa | 0 mm | 0.45 m/s, 211° | - | - |
| 1777651743 | 16.67° C | 48% | 1014 hPa | 0 mm | 0.89 m/s, 329° | - | - |
| 1777651442 | 16.67° C | 47% | 1014.2 hPa | 0 mm | 0.45 m/s, 229° | - | - |
| 1777651143 | 16.67° C | 52% | 1014.3 hPa | 0 mm | 0.45 m/s, 229° | - | - |
| 1777650845 | 16.11° C | 52% | 1014.3 hPa | 0 mm | 0.45 m/s, 121° | - | - |
| 1777650544 | 16.11° C | 49% | 1014.3 hPa | 0 mm | 0.45 m/s, 221° | - | - |
* Rain latest hour (hover to see other rain measurements)
** Current wind speed in m/s (hover to see current wind gust speed)